Location: Arroyo Grande
(40.2671°N, 4.2512°W)
Time: 18:27:16
(UTC+00:00)

CZ-4B R/B - Pass Details

Date: 03 February 2023
Orbit: 473 x 641 km, 97.9° (Epoch: 22 March)

Event Time Altitude Azimuth Distance (km) Brightness Sun altitude
Rises 18:28:36 0° 175° (S) 2,830 6.6 -10.1°
Reaches altitude 10° 18:30:50 10° 179° (S) 1,906 5.7 -10.5°
Maximum altitude 18:34:55 59° 259° (WSW) 658 3.6 -11.3°
Drops below altitude 10° 18:38:48 10° 339° (NNW) 1,817 5.6 -12.0°
Sets 18:40:54 0° 344° (NNW) 2,685 6.4 -12.4°
